Date String (YYYY-MM-DD hh:mm:ss) UTC,Instrument flags,absolute air pressure of the measurement (hPa),sample flow rate (lpm),inlet stack bypass flow (lpm),air temperature of the measurement (°C),ambient temperature measured by the external sensor (°C),aerosol sample conditioner tube jacket temperature (°C),OPC LED temperature (°C),internal box temperature (°C),relative humidity of the measurement (%),span deviation,mass concentration of particles derived from Lorenz-Mie calculation of OPC scattering (μg/m³),mass concentration of particles derived from Lorenz-Mie calculation of OPC scattering (μg/m³),mass concentration of particles derived from Lorenz-Mie calculation of OPC scattering (μg/m³)
DateTimeUTC,F1_M11,P_M11,Q1_M11,Q2_M11,T1_M11,T2_M11,T3_M11,T4_M11,T5_M11,U1_M11,ZSPAN_M11,X0_M11,X2_M11,X1_M11
2023-09-05 23:00:00,SystemResetWarning,0833.4,5.00,000.00,027.9,026.9,000.0,036.1,029.7,26.1,0000.0,0012.77,0004.43,0003.71
2023-09-05 23:01:00,SystemResetWarning,0833.4,5.00,000.00,027.9,027.0,000.0,036.2,029.8,25.8,0000.0,0013.65,0004.47,0003.72
2023-09-05 23:02:00,SystemResetWarning,0833.4,4.98,000.00,027.9,026.1,000.0,036.2,029.5,25.9,0000.0,0013.89,0004.47,0003.72
2023-09-05 23:03:00,SystemResetWarning,0833.4,5.01,000.00,027.9,024.9,000.0,036.1,029.2,26.0,0000.0,0014.12,0004.45,0003.71
2023-09-05 23:04:00,SystemResetWarning,0833.4,5.02,000.00,027.8,024.9,000.0,036.1,029.2,26.1,0000.0,0012.58,0004.42,0003.72
2023-09-05 23:05:00,SystemResetWarning,0833.4,5.00,000.00,027.8,025.1,000.0,036.1,029.2,26.3,0000.0,0012.35,0004.41,0003.73
2023-09-05 23:06:00,SystemResetWarning,0833.4,5.00,000.00,027.8,025.5,000.0,036.1,029.3,26.5,0000.0,0012.52,0004.37,0003.73
2023-09-05 23:07:00,SystemResetWarning,0833.4,5.00,000.00,027.8,025.8,000.0,036.1,029.5,26.8,0000.0,0012.23,0004.35,0003.73
2023-09-05 23:08:00,SystemResetWarning,0833.4,5.00,000.00,027.9,026.1,000.0,036.1,029.5,27.0,0000.0,0013.26,0004.40,0003.74
2023-09-05 23:09:00,SystemResetWarning,0833.5,5.00,000.00,027.9,026.4,000.0,036.2,029.6,27.1,0000.0,0014.00,0004.43,0003.75
2023-09-05 23:10:00,SystemResetWarning,0833.5,5.01,000.00,028.0,026.7,000.0,036.2,029.7,27.5,0000.0,0014.12,0004.48,0003.77
2023-09-05 23:11:00,SystemResetWarning,0833.6,4.99,000.00,028.0,026.9,000.0,036.2,029.8,27.5,0000.0,0014.59,0004.47,0003.77
2023-09-05 23:12:00,SystemResetWarning,0833.5,4.99,000.00,028.1,026.3,000.0,036.2,029.7,27.1,0000.0,0013.01,0004.44,0003.77
2023-09-05 23:13:00,SystemResetWarning,0833.5,5.00,000.00,028.0,024.6,000.0,036.1,029.2,27.3,0000.0,0012.79,0004.43,0003.78
2023-09-05 23:14:00,SystemResetWarning,0833.4,5.00,000.00,027.8,023.9,000.0,036.1,029.0,27.6,0000.4,0012.02,0004.41,0003.79
2023-09-05 23:15:00,SystemResetWarning,0833.4,5.00,000.00,027.8,024.1,000.0,036.1,029.0,27.3,0000.2,0012.66,0004.43,0003.79
2023-09-05 23:16:00,SystemResetWarning,0833.4,5.01,000.00,027.7,024.5,000.0,036.1,029.1,27.3,0000.3,0013.22,0004.41,0003.79
2023-09-05 23:17:00,SystemResetWarning,0833.4,4.99,000.00,027.7,024.9,000.0,036.1,029.2,27.7,0000.4,0013.36,0004.42,0003.79
2023-09-05 23:18:00,SystemResetWarning,0833.4,5.00,000.00,027.7,025.4,000.0,036.1,029.3,27.3,0000.8,0014.00,0004.45,0003.80
2023-09-05 23:19:00,SystemResetWarning,0833.5,5.00,000.00,027.8,025.8,000.0,036.1,029.4,27.1,0001.3,0013.57,0004.45,0003.80
2023-09-05 23:20:00,SystemResetWarning,0833.5,5.01,000.00,027.8,026.1,000.0,036.1,029.5,27.3,0000.5,0012.92,0004.43,0003.80
2023-09-05 23:21:00,SystemResetWarning,0833.5,5.00,000.00,027.9,026.4,000.0,036.1,029.6,27.4,-000.2,0013.12,0004.41,0003.79
2023-09-05 23:22:00,SystemResetWarning,0833.5,5.00,000.00,027.9,026.7,000.0,036.1,029.7,27.0,-000.4,0012.88,0004.44,0003.79
2023-09-05 23:23:00,SystemResetWarning,0833.5,5.01,000.00,028.0,026.9,000.0,036.2,029.8,26.8,-000.3,0012.94,0004.44,0003.79
2023-09-05 23:24:00,SystemResetWarning,0833.5,5.00,000.00,028.0,027.1,000.0,036.2,029.8,26.7,-000.2,0012.91,0004.44,0003.79
2023-09-05 23:25:00,SystemResetWarning,0833.5,5.00,000.00,028.1,027.2,000.0,036.2,029.9,26.9,0000.5,0013.41,0004.48,0003.78
2023-09-05 23:26:00,SystemResetWarning,0833.5,4.99,000.00,028.2,027.1,000.0,036.3,029.9,26.9,0001.3,0013.03,0004.49,0003.78
2023-09-05 23:27:00,SystemResetWarning,0833.5,4.99,000.00,028.1,025.6,000.0,036.2,029.5,27.1,0000.5,0012.14,0004.49,0003.78
2023-09-05 23:28:00,SystemResetWarning,0833.5,5.01,000.00,027.9,024.3,000.0,036.2,029.1,27.2,0000.2,0011.99,0004.52,0003.79
2023-09-05 23:29:00,SystemResetWarning,0833.5,5.00,000.00,027.8,024.1,000.0,036.1,029.0,27.0,0001.7,0012.30,0004.55,0003.80
2023-09-05 23:30:00,SystemResetWarning,0833.5,5.01,000.00,027.8,024.4,000.0,036.1,029.0,26.8,0000.6,0012.17,0004.56,0003.81
2023-09-05 23:31:00,SystemResetWarning,0833.5,4.99,000.00,027.7,024.9,000.0,036.1,029.2,27.0,0001.4,0012.58,0004.55,0003.81
2023-09-05 23:32:00,SystemResetWarning,0833.5,5.00,000.00,027.8,025.3,000.0,036.1,029.3,27.0,0000.0,0013.64,0004.56,0003.81
2023-09-05 23:33:00,SystemResetWarning,0833.6,5.00,000.00,027.8,025.7,000.0,036.1,029.4,27.0,0000.4,0013.56,0004.55,0003.81
2023-09-05 23:34:00,SystemResetWarning,0833.6,5.01,000.00,027.8,026.1,000.0,036.1,029.5,26.8,0002.2,0013.48,0004.54,0003.82
2023-09-05 23:35:00,SystemResetWarning,0833.6,5.00,000.00,027.9,026.4,000.0,036.2,029.6,26.5,0002.4,0013.52,0004.53,0003.82
2023-09-05 23:36:00,SystemResetWarning,0833.6,5.00,000.00,027.9,026.6,000.0,036.2,029.7,26.3,0002.6,0013.26,0004.50,0003.82
2023-09-05 23:37:00,SystemResetWarning,0833.7,5.00,000.00,028.0,026.8,000.0,036.2,029.8,26.3,0002.3,0014.97,0004.48,0003.82
2023-09-05 23:38:00,SystemResetWarning,0833.6,5.00,000.00,028.1,027.0,000.0,036.2,029.8,26.4,0001.8,0015.38,0004.51,0003.81
2023-09-05 23:39:00,SystemResetWarning,0833.6,5.00,000.00,028.1,027.2,000.0,036.3,029.9,26.3,0001.7,0015.18,0004.50,0003.81
2023-09-05 23:40:00,SystemResetWarning,0833.6,5.00,000.00,028.2,027.0,000.0,036.3,029.9,26.2,0000.0,0014.57,0004.47,0003.81
2023-09-05 23:41:00,SystemResetWarning,0833.5,4.99,000.00,028.1,025.5,000.0,036.3,029.4,26.3,0000.0,0014.76,0004.47,0003.80
2023-09-05 23:42:00,SystemResetWarning,0833.6,5.01,000.00,028.0,025.0,000.0,036.2,029.3,26.6,0000.0,0015.38,0004.48,0003.80
2023-09-05 23:43:00,SystemResetWarning,0833.5,5.00,000.00,027.9,025.1,000.0,036.2,029.4,27.0,0000.0,0014.85,0004.46,0003.79
2023-09-05 23:44:00,SystemResetWarning,0833.5,5.00,000.00,027.9,025.4,000.0,036.2,029.4,27.1,0000.4,0014.44,0004.42,0003.79
2023-09-05 23:45:00,SystemResetWarning,0833.6,5.00,000.00,027.9,025.8,000.0,036.2,029.5,26.8,0001.8,0014.63,0004.46,0003.80
2023-09-05 23:46:00,SystemResetWarning,0833.6,5.00,000.00,028.0,026.1,000.0,036.3,029.6,27.0,0002.0,0015.43,0004.47,0003.81
2023-09-05 23:47:00,SystemResetWarning,0833.6,5.00,000.00,028.0,026.4,000.0,036.3,029.7,27.2,0002.0,0015.90,0004.53,0003.83
2023-09-05 23:48:00,SystemResetWarning,0833.6,5.00,000.00,028.1,026.7,000.0,036.3,029.8,27.0,0001.3,0014.09,0004.56,0003.85
2023-09-05 23:49:00,SystemResetWarning,0833.7,5.00,000.00,028.1,026.9,000.0,036.3,029.9,26.8,0000.8,0013.45,0004.57,0003.88
2023-09-05 23:50:00,SystemResetWarning,0833.7,4.99,000.00,028.2,027.1,000.0,036.4,030.0,27.2,0001.9,0014.18,0004.58,0003.92
2023-09-05 23:51:00,SystemResetWarning,0833.7,4.98,000.00,028.2,027.3,000.0,036.4,030.1,26.7,0001.6,0013.91,0004.64,0003.96
2023-09-05 23:52:00,SystemResetWarning,0833.7,5.00,000.00,028.3,026.7,000.0,036.4,029.9,26.6,0001.7,0013.62,0004.66,0003.98
2023-09-05 23:53:00,SystemResetWarning,0833.7,5.00,000.00,028.1,024.9,000.0,036.3,029.3,26.8,0001.7,0013.22,0004.70,0004.02
2023-09-05 23:54:00,SystemResetWarning,0833.6,5.00,000.00,028.0,024.1,000.0,036.3,029.1,26.8,0002.2,0012.93,0004.76,0004.07
2023-09-05 23:55:00,SystemResetWarning,0833.7,5.01,000.00,027.9,024.2,000.0,036.2,029.1,27.2,0002.2,0013.52,0004.83,0004.11
2023-09-05 23:56:00,SystemResetWarning,0833.7,5.01,000.00,027.8,024.6,000.0,036.2,029.1,27.4,0002.2,0014.27,0004.91,0004.14
2023-09-05 23:57:00,SystemResetWarning,0833.7,5.00,000.00,027.8,025.1,000.0,036.2,029.3,27.4,0000.9,0013.29,0004.95,0004.17
2023-09-05 23:58:00,SystemResetWarning,0833.7,5.00,000.00,027.9,025.5,000.0,036.2,029.4,27.2,0002.1,0013.07,0004.99,0004.19
2023-09-05 23:59:00,SystemResetWarning,0833.7,5.00,000.00,027.9,025.9,000.0,036.2,029.5,27.0,0001.9,0013.14,0005.00,0004.21
